Hourly Data Report for October 15, 2014

All times are specified in Local Standard Time (LST). Add 1 hour to adjust for Daylight Saving Time where and when it is observed.

KITCHENER/WATERLOO
ONTARIO

43°27'39.000" N
80°22'43.000" W
321.60 m
6144239
71368
YKF

Download Data

Hourly Data (October 2014)
Hourly Data Report for October 15, 2014
Temp Definition
°C
Dew Point Temp Definition
°C
Rel Hum Definition
%
Wind Dir Definition
10's deg

Wind Spd Definition
km/h
Visibility Definition
km
Stn Press Definition
kPa
Hmdx Definition


Wind Chill Definition


Weather Definition


TIME
00:00 Legend Double Dagger 17.5 16.5 94 31 11 8.1 96.94     Moderate Rain
01:00 Legend Double Dagger 15.4 14.6 95 30 13 16.1 96.91     Rain
02:00 Legend Double Dagger 14.8 13.9 94 28 18 16.1 96.98     Rain
03:00 Legend Double Dagger 14.3 13.4 94 24 13 8.1 97.11     Rain,Fog
04:00 Legend Double Dagger 13.6 12.7 94 LegendMM 4 16.1 97.03     LegendNANA
05:00 Legend Double Dagger 13.6 12.8 95 12 8 16.1 97.07     LegendNANA
06:00 Legend Double Dagger 13.4 12.6 95 21 13 16.1 97.16     LegendNANA
07:00 Legend Double Dagger 13.3 12.4 94 19 9 16.1 97.21     LegendNANA
08:00 Legend Double Dagger 13.5 12.6 94 20 9 16.1 97.25     LegendNANA
09:00 Legend Double Dagger 14.0 12.9 93 21 11 16.1 97.26     LegendNANA
10:00 Legend Double Dagger 14.4 13.2 93 20 9 16.1 97.27     LegendNANA
11:00 Legend Double Dagger 14.8 13.4 91 19 9 16.1 97.27     LegendNANA
12:00 Legend Double Dagger 15.7 13.6 87 19 9 16.1 97.28     LegendNANA
13:00 Legend Double Dagger 15.9 13.4 85   0 16.1 97.17     LegendNANA
14:00 Legend Double Dagger 16.2 13.1 82 14 4 LegendMM 97.18     LegendNANA
15:00 Legend Double Dagger 16.2 12.8 80 17 8 16.1 97.17     LegendNANA
16:00 Legend Double Dagger 16.1 13.2 83 11 8 16.1 97.14     LegendNANA
17:00 Legend Double Dagger 14.7 12.8 88 10 8 16.1 97.15     LegendNANA
18:00 Legend Double Dagger 14.5 13.1 91 14 9 16.1 97.24     LegendNANA
19:00 Legend Double Dagger 14.0 12.9 93 3 5 16.1 97.20     LegendNANA
20:00 Legend Double Dagger 13.2 12.4 95 36 5 LegendMM 97.16     LegendNANA
21:00 Legend Double Dagger 11.1 10.5 96 2 4 0.6 97.17     Fog
22:00 Legend Double Dagger 10.2 9.8 97 4 4 0.2 97.12     LegendNANA
23:00 Legend Double Dagger 8.9 8.5 97 4 8 LegendMM 97.06     LegendNANA

Notes on Data Quality.

Legend

  • E = Estimated
  • M = Missing
  • NA = Not Available
  • ‡ = Partner data that is not subject to review by the National Climate Archives
Date modified: